E24CR-1 Weather Reports


Display with metric or nautical units.
time (UTC)temp
F
wind
direction
speed
MPH
gust
MPH
rain 1hr
in
rain 24hr
in
rain mn
in
humidity
%
barometer
mb
20260904075256 85 0 0.0 0.0 0.00 0.00 0.00 65 949.0
20260904074232 85 0 0.0 0.0 0.00 0.00 0.00 67 949.0
20260904073207 85 0 0.0 0.0 0.00 0.00 0.00 65 949.0
20260904072144 85 0 0.0 0.0 0.00 0.00 0.00 67 949.0
20260904071120 84 0 0.0 0.0 0.00 0.00 0.00 64 950.0
20260904070055 85 0 0.0 0.0 0.00 0.00 0.00 64 950.0
20260904065030 86 0 0.0 0.0 0.00 0.00 0.00 65 950.0
20260904064004 86 0 0.0 0.0 0.00 0.00 0.00 67 950.0
20260904062940 86 0 0.0 0.0 0.00 0.00 0.00 58 951.0
20260904061915 86 0 0.0 0.0 0.00 0.00 0.00 61 951.0
20260904060850 86 0 0.0 0.0 0.00 0.00 0.00 63 951.0
20260904055826 86 0 0.0 0.0 0.00 0.00 0.00 61 951.0
20260904054802 88 0 0.0 0.0 0.00 0.00 0.00 61 951.0
20260904053737 86 0 0.0 0.0 0.00 0.00 0.00 62 951.0
20260904052713 87 0 0.0 0.0 0.00 0.00 0.00 58 952.0
20260904051648 87 0 0.0 0.0 0.00 0.00 0.00 64 952.0
20260904050623 83 0 0.0 0.0 0.00 0.00 0.00 67 952.0
20260904045559 83 0 0.0 0.0 0.00 0.00 0.00 72 952.0
20260904044535 83 0 0.0 0.0 0.00 0.00 0.00 71 952.0
20260904043510 83 0 0.0 0.0 0.00 0.00 0.00 69 952.0
20260904042445 83 0 0.0 0.0 0.00 0.00 0.00 72 952.0
20260904041421 83 0 0.0 0.0 0.00 0.00 0.00 71 952.0
20260904040356 82 0 0.0 0.0 0.00 0.00 0.00 71 952.0
20260904035331 83 0 0.0 0.0 0.00 0.00 0.00 72 952.0
20260904034307 82 0 0.0 0.0 0.00 0.00 0.00 73 953.0
20260904033242 82 0 0.0 0.0 0.00 0.00 0.00 71 953.0
20260904032217 82 0 0.0 0.0 0.00 0.00 0.00 77 953.0
20260904031152 81 0 0.0 0.0 0.00 0.00 0.00 76 953.0
20260904030128 81 0 0.0 0.0 0.00 0.00 0.00 78 953.0
20260904025103 80 0 0.0 0.0 0.00 0.00 0.00 77 953.0
20260904024038 80 0 0.0 0.0 0.00 0.00 0.00 76 953.0
20260904023014 79 0 0.0 0.0 0.00 0.00 0.00 78 953.0
20260904021949 79 0 0.0 0.0 0.00 0.00 0.00 77 953.0
20260904020925 79 0 0.0 0.0 0.00 0.00 0.00 78 953.0
20260904015901 78 0 0.0 0.0 0.00 0.00 0.00 78 953.0
20260904014836 77 0 0.0 0.0 0.00 0.00 0.00 78 953.0
20260904013811 77 0 0.0 0.0 0.00 0.00 0.00 79 952.0
20260904012745 77 0 0.0 0.0 0.00 0.00 0.00 82 952.0
20260904011720 77 0 0.0 0.0 0.00 0.00 0.00 79 952.0
20260904010655 77 0 0.0 0.0 0.00 0.00 0.00 84 952.0
20260904005630 77 0 0.0 0.0 0.00 0.00 0.00 82 952.0
20260904004605 77 0 0.0 0.0 0.00 0.00 0.00 82 952.0
20260904003541 77 0 0.0 0.0 0.00 0.00 0.00 85 952.0
20260904002515 77 0 0.0 0.0 0.00 0.00 0.00 83 952.0
20260904001450 76 0 0.0 0.0 0.00 0.00 0.00 80 952.0
20260904000425 76 0 0.0 0.0 0.00 0.00 0.00 81 951.0
20260903235356 76 0 0.0 0.0 0.00 0.00 0.00 82 951.0
20260903234330 76 0 0.0 0.0 0.00 0.00 0.00 81 951.0
20260903233305 75 0 0.0 0.0 0.00 0.00 0.00 82 951.0
20260903232239 76 0 0.0 0.0 0.00 0.00 0.00 83 951.0
20260903231215 76 0 0.0 0.0 0.00 0.00 0.00 82 951.0
20260903230150 76 0 0.0 0.0 0.00 0.00 0.00 82 951.0
20260903225125 76 0 0.0 0.0 0.00 0.00 0.00 82 951.0
20260903224101 75 0 0.0 0.0 0.00 0.00 0.00 84 951.0
20260903223037 75 0 0.0 0.0 0.00 0.00 0.00 84 951.0
20260903222013 76 0 0.0 0.0 0.00 0.00 0.00 84 950.0
20260903220948 76 0 0.0 0.0 0.00 0.00 0.00 84 950.0
20260903215924 76 0 0.0 0.0 0.00 0.00 0.00 84 950.0
20260903214859 76 0 0.0 0.0 0.00 0.00 0.00 84 950.0
20260903213834 76 0 0.0 0.0 0.00 0.00 0.00 84 950.0
20260903212810 76 0 0.0 0.0 0.00 0.00 0.00 83 950.0
20260903211745 76 0 0.0 0.0 0.00 0.00 0.00 83 950.0
20260903210722 76 0 0.0 0.0 0.00 0.00 0.00 83 950.0
20260903205657 76 0 0.0 0.0 0.00 0.00 0.00 83 950.0
20260903204632 76 0 0.0 0.0 0.00 0.00 0.00 81 950.0
20260903203608 76 0 0.0 0.0 0.00 0.00 0.00 82 950.0
20260903202543 76 0 0.0 0.0 0.00 0.00 0.00 82 950.0
20260903201518 77 0 0.0 0.0 0.00 0.00 0.00 81 950.0
20260903200454 77 0 0.0 0.0 0.00 0.00 0.00 79 950.0
20260903195430 77 0 0.0 0.0 0.00 0.00 0.00 79 950.0
20260903194405 77 0 0.0 0.0 0.00 0.00 0.00 78 950.0
20260903193341 77 0 0.0 0.0 0.00 0.00 0.00 80 950.0
20260903192316 77 0 0.0 0.0 0.00 0.00 0.00 79 950.0
20260903191252 77 0 0.0 0.0 0.00 0.00 0.00 81 950.0
20260903190227 77 0 0.0 0.0 0.00 0.00 0.00 81 950.0
20260903185202 77 0 0.0 0.0 0.00 0.00 0.00 79 950.0
20260903184137 77 0 0.0 0.0 0.00 0.00 0.00 79 950.0
20260903183112 77 0 0.0 0.0 0.00 0.00 0.00 81 950.0
20260903182048 77 0 0.0 0.0 0.00 0.00 0.00 81 950.0
20260903181023 77 0 0.0 0.0 0.00 0.00 0.00 81 950.0
20260903175959 78 0 0.0 0.0 0.00 0.00 0.00 80 950.0
20260903174934 78 0 0.0 0.0 0.00 0.00 0.00 81 950.0
20260903173910 78 0 0.0 0.0 0.00 0.00 0.00 80 951.0
20260903172845 78 0 0.0 0.0 0.00 0.00 0.00 77 951.0
20260903171820 78 0 0.0 0.0 0.00 0.00 0.00 77 951.0
20260903170755 78 0 0.0 0.0 0.00 0.00 0.00 76 951.0
20260903165731 79 0 0.0 0.0 0.00 0.00 0.00 75 951.0
20260903164707 78 0 0.0 0.0 0.00 0.00 0.00 75 951.0
20260903163642 78 0 0.0 0.0 0.00 0.00 0.00 75 951.0
20260903162618 78 0 0.0 0.0 0.00 0.00 0.00 81 951.0
20260903161554 78 0 0.0 0.0 0.00 0.00 0.00 81 951.0
20260903160529 78 0 0.0 0.0 0.00 0.00 0.00 82 951.0
20260903155505 78 0 0.0 0.0 0.00 0.00 0.00 83 951.0
20260903154441 78 0 0.0 0.0 0.00 0.00 0.00 84 951.0
20260903153416 77 0 0.0 0.0 0.00 0.00 0.00 84 951.0
20260903152352 77 0 0.0 0.0 0.00 0.00 0.00 84 951.0
20260903151327 77 0 0.0 0.0 0.00 0.00 0.00 83 951.0
20260903150303 78 0 0.0 0.0 0.00 0.00 0.00 83 951.0
20260903145239 78 0 0.0 0.0 0.00 0.00 0.00 82 951.0
20260903144214 78 0 0.0 0.0 0.00 0.00 0.00 81 951.0
20260903143150 78 0 0.0 0.0 0.00 0.00 0.00 81 950.0
20260903142126 78 0 0.0 0.0 0.00 0.00 0.00 81 950.0
20260903141102 79 0 0.0 0.0 0.00 0.00 0.00 81 950.0
20260903140037 79 0 0.0 0.0 0.00 0.00 0.00 80 950.0
20260903135012 80 0 0.0 0.0 0.00 0.00 0.00 80 950.0
20260903133948 80 0 0.0 0.0 0.00 0.00 0.00 80 950.0
20260903132923 80 0 0.0 0.0 0.00 0.00 0.00 81 950.0
20260903131859 80 0 0.0 0.0 0.00 0.00 0.00 80 949.0
20260903130834 80 0 0.0 0.0 0.00 0.00 0.00 80 949.0
20260903125810 80 0 0.0 0.0 0.00 0.00 0.00 80 949.0
20260903124746 80 0 0.0 0.0 0.00 0.00 0.00 79 949.0
20260903123722 80 0 0.0 0.0 0.00 0.00 0.00 77 949.0
20260903122658 80 0 0.0 0.0 0.00 0.00 0.00 78 949.0
20260903121633 80 0 0.0 0.0 0.00 0.00 0.00 79 949.0
20260903120609 80 0 0.0 0.0 0.00 0.00 0.00 79 949.0
20260903115544 80 0 0.0 0.0 0.00 0.00 0.00 78 948.0
20260903114517 80 0 0.0 0.0 0.00 0.00 0.00 79 948.0
20260903113452 80 0 0.0 0.0 0.00 0.00 0.00 80 948.0
20260903112427 81 0 0.0 0.0 0.00 0.00 0.00 78 948.0
20260903111358 81 0 0.0 0.0 0.00 0.00 0.00 77 948.0
20260903110331 81 0 0.0 0.0 0.00 0.00 0.00 77 948.0
20260903105306 81 0 0.0 0.0 0.00 0.00 0.00 78 948.0
20260903104238 82 0 0.0 0.0 0.00 0.00 0.00 77 948.0
20260903103213 82 0 0.0 0.0 0.00 0.00 0.00 77 948.0
20260903102148 83 0 0.0 0.0 0.00 0.00 0.00 75 947.0
20260903101122 84 0 0.0 0.0 0.00 0.00 0.00 70 947.0
20260903100054 84 0 0.0 0.0 0.00 0.00 0.00 69 948.0
20260903095023 84 0 0.0 0.0 0.00 0.00 0.00 67 948.0
20260903093958 84 0 0.0 0.0 0.00 0.00 0.00 68 948.0
20260903092933 84 0 0.0 0.0 0.00 0.00 0.00 66 948.0
20260903091908 83 0 0.0 0.0 0.00 0.00 0.00 65 948.0
20260903090843 83 0 0.0 0.0 0.00 0.00 0.00 67 948.0
20260903085818 81 0 0.0 0.0 0.00 0.00 0.00 72 948.0
20260903084751 82 0 0.0 0.0 0.00 0.00 0.00 73 948.0
20260903083725 83 0 0.0 0.0 0.00 0.00 0.00 71 948.0
20260903082657 83 0 0.0 0.0 0.00 0.00 0.00 68 948.0
20260903081632 86 0 0.0 0.0 0.00 0.00 0.00 63 948.0
20260903080607 87 0 0.0 0.0 0.00 0.00 0.00 63 948.0